Anaktuvuk Pass, AK

5:48 AM AKDT on August 19, 2017 (GMT -0800)
Anaktuvuk Pass

Weather History for PAKP - September, 2013

Change the Weather History Date:

Tuesday, September 17, 2013

  Actual Average Record
Temperature  
Mean Temperature 19 °F -  
Max Temperature 23 °F 35 °F 55 °F (2006)
Min Temperature 15 °F 23 °F 6 °F (2003)
Degree Days  
Heating Degree Days 46    
Moisture  
Dew Point 9 °F    
Average Humidity 67    
Maximum Humidity 74    
Minimum Humidity 54    
Precipitation  
Precipitation 0.00 in - - ()
Sea Level Pressure  
Sea Level Pressure 29.84 in    
Wind  
Wind Speed 12 mph (NE)    
Max Wind Speed 17 mph    
Max Gust Speed 23 mph    
Visibility 8 miles    
Events      
Averages and records for this station are not official NWS values.
T = Trace of Precipitation, MM = Missing Value Source: NWS Daily Summary

Daily Weather History Graph

Daily Weather History Graph

Search for Another Location

Airport or City:

Trip Planner

Search our weather history database for the weather conditions in past years. The results will help you decide how hot, cold, wet, or windy it might be!

Date:

Astronomy

Sep. 17, 2013 Rise Set
Actual Time 7:32 AM AKDT 8:28 PM AKDT
Civil Twilight 6:34 AM AKDT 9:25 PM AKDT
Nautical Twilight 5:19 AM AKDT 10:39 PM AKDT
Astronomical Twilight 3:33 AM AKDT 12:21 AM AKDT
Moon 7:36 PM AKDT (9/17) 5:03 AM AKDT (9/17)
Length of Visible Light 14h 50m
Length of Day
12h 56m
Waxing Gibbous, 96% of the Moon is Illuminated
Sep 17
Waxing Gibbous
Sep 19
Full
Sep 26
Last Quarter
Oct 4
New
Oct 11
First Quarter

Hourly Weather History & Observations

Time (AKDT) Temp. Windchill Dew Point Humidity Pressure Visibility Wind Dir Wind Speed Gust Speed Precip Events Conditions
12:16 AM 17.6 °F 5.7 °F 10.4 °F 73% 29.94 in 10.0 mi NE 10.4 mph - N/A   Mostly Cloudy
12:36 AM 17.6 °F 5.0 °F 10.4 °F 73% 29.93 in 10.0 mi NE 11.5 mph - N/A   Mostly Cloudy
12:56 AM 17.6 °F 7.3 °F 10.4 °F 73% 29.93 in 10.0 mi NE 8.1 mph - N/A   Mostly Cloudy
1:16 AM 17.6 °F 5.7 °F 10.4 °F 73% 29.93 in 10.0 mi NE 10.4 mph - N/A   Overcast
1:36 AM 17.6 °F 6.4 °F 10.4 °F 73% 29.93 in 10.0 mi NE 9.2 mph - N/A   Mostly Cloudy
1:56 AM 17.6 °F 5.7 °F 10.4 °F 73% 29.92 in 10.0 mi NE 10.4 mph - N/A   Scattered Clouds
2:16 AM 17.6 °F 5.7 °F 8.6 °F 68% 29.92 in 10.0 mi NE 10.4 mph - N/A   Scattered Clouds
2:36 AM 17.6 °F 5.0 °F 10.4 °F 73% 29.92 in 10.0 mi NE 11.5 mph - N/A   Scattered Clouds
2:56 AM 17.6 °F 4.3 °F 10.4 °F 73% 29.91 in 10.0 mi NE 12.7 mph 17.3 mph N/A   Clear
3:16 AM 17.6 °F 5.7 °F 10.4 °F 73% 29.91 in 10.0 mi NE 10.4 mph - N/A   Clear
3:36 AM 17.6 °F 5.0 °F 8.6 °F 68% 29.90 in 10.0 mi NE 11.5 mph - N/A   Clear
3:56 AM 17.6 °F 5.0 °F 8.6 °F 68% 29.90 in 10.0 mi NE 11.5 mph 17.3 mph N/A   Clear
4:16 AM 15.8 °F 2.7 °F 8.6 °F 73% 29.89 in 10.0 mi NE 11.5 mph - N/A   Clear
4:36 AM 15.8 °F 2.7 °F 8.6 °F 73% 29.89 in 10.0 mi NE 11.5 mph - N/A   Scattered Clouds
4:56 AM 15.8 °F 2.1 °F 8.6 °F 73% 29.88 in 10.0 mi NE 12.7 mph - N/A   Overcast
5:16 AM 17.6 °F 5.0 °F 8.6 °F 68% 29.88 in 10.0 mi NE 11.5 mph - N/A   Overcast
5:36 AM 15.8 °F 2.1 °F 8.6 °F 73% 29.88 in 10.0 mi NE 12.7 mph 18.4 mph N/A   Overcast
5:56 AM 15.8 °F 2.1 °F 8.6 °F 73% 29.88 in 10.0 mi NE 12.7 mph 16.1 mph N/A   Mostly Cloudy
6:16 AM 17.6 °F 3.7 °F 8.6 °F 68% 29.88 in 10.0 mi NE 13.8 mph 19.6 mph N/A   Scattered Clouds
6:36 AM 17.6 °F 4.3 °F 8.6 °F 68% 29.87 in 10.0 mi ENE 12.7 mph - N/A   Mostly Cloudy
6:56 AM 17.6 °F 4.3 °F 8.6 °F 68% 29.87 in 10.0 mi ENE 12.7 mph 17.3 mph N/A   Mostly Cloudy
7:16 AM 15.8 °F 0.9 °F 8.6 °F 73% 29.87 in 10.0 mi NE 15.0 mph - N/A   Mostly Cloudy
7:36 AM 15.8 °F 1.4 °F 8.6 °F 73% 29.87 in 10.0 mi NE 13.8 mph - N/A   Overcast
7:56 AM 15.8 °F 1.4 °F 8.6 °F 73% 29.87 in 10.0 mi ENE 13.8 mph - N/A   Overcast
8:16 AM 15.8 °F 1.4 °F 8.6 °F 73% 29.86 in 10.0 mi NE 13.8 mph - N/A   Mostly Cloudy
8:36 AM 15.8 °F 1.4 °F 8.6 °F 73% 29.86 in 10.0 mi ENE 13.8 mph 17.3 mph N/A   Scattered Clouds
8:56 AM 15.8 °F 2.7 °F 8.6 °F 73% 29.86 in 8.0 mi ENE 11.5 mph 18.4 mph N/A   Scattered Clouds
9:16 AM 17.6 °F 3.2 °F 8.6 °F 68% 29.85 in 9.0 mi NE 15.0 mph 19.6 mph N/A   Scattered Clouds
9:36 AM 17.6 °F 3.2 °F 8.6 °F 68% 29.85 in 9.0 mi ENE 15.0 mph - N/A   Partly Cloudy
9:56 AM 17.6 °F 3.7 °F 8.6 °F 68% 29.85 in 10.0 mi ENE 13.8 mph 19.6 mph N/A   Scattered Clouds
10:16 AM 17.6 °F 3.2 °F 8.6 °F 68% 29.85 in 9.0 mi ENE 15.0 mph - N/A   Scattered Clouds
10:36 AM 17.6 °F 3.2 °F 8.6 °F 68% 29.85 in 10.0 mi ENE 15.0 mph 20.7 mph N/A   Partly Cloudy
10:56 AM 17.6 °F 3.7 °F 8.6 °F 68% 29.84 in 10.0 mi ENE 13.8 mph 21.9 mph N/A   Partly Cloudy
11:16 AM 19.4 °F 5.0 °F 8.6 °F 63% 29.84 in 10.0 mi ENE 16.1 mph 20.7 mph N/A   Mostly Cloudy
11:36 AM 19.4 °F 5.5 °F 8.6 °F 63% 29.85 in 5.0 mi NE 15.0 mph 23.0 mph N/A   Overcast
11:56 AM 19.4 °F 5.0 °F 8.6 °F 63% 29.84 in 6.0 mi ENE 16.1 mph 20.7 mph N/A   Overcast
12:16 PM 19.4 °F 5.5 °F 8.6 °F 63% 29.84 in 7.0 mi ENE 15.0 mph 20.7 mph N/A   Overcast
12:36 PM 19.4 °F 5.0 °F 8.6 °F 63% 29.84 in 7.0 mi ENE 16.1 mph - N/A   Overcast
12:56 PM 19.4 °F 4.5 °F 8.6 °F 63% 29.83 in 5.0 mi NE 17.3 mph 20.7 mph N/A   Overcast
1:16 PM 19.4 °F 5.0 °F 8.6 °F 63% 29.83 in 9.0 mi NE 16.1 mph 21.9 mph N/A   Overcast
1:36 PM 19.4 °F 5.0 °F 8.6 °F 63% 29.83 in 5.0 mi NE 16.1 mph 20.7 mph N/A   Overcast
1:56 PM 21.2 °F 7.3 °F 8.6 °F 58% 29.83 in 5.0 mi NE 16.1 mph 21.9 mph N/A   Overcast
2:16 PM 21.2 °F 6.8 °F 8.6 °F 58% 29.83 in 3.0 mi NE 17.3 mph 20.7 mph N/A   Overcast
2:36 PM 21.2 °F 6.8 °F 8.6 °F 58% 29.83 in 3.0 mi NE 17.3 mph 23.0 mph N/A   Overcast
2:56 PM 21.2 °F 8.3 °F 8.6 °F 58% 29.82 in 3.0 mi NE 13.8 mph 23.0 mph N/A   Overcast
3:16 PM 21.2 °F 7.3 °F 8.6 °F 58% 29.82 in 5.0 mi NE 16.1 mph 20.7 mph N/A   Overcast
3:36 PM 21.2 °F 7.8 °F 8.6 °F 58% 29.81 in 6.0 mi NE 15.0 mph - N/A   Overcast
3:56 PM 21.2 °F 7.8 °F 8.6 °F 58% 29.81 in 9.0 mi ENE 15.0 mph 21.9 mph N/A   Overcast
4:16 PM 21.2 °F 7.8 °F 10.4 °F 63% 29.81 in 5.0 mi NE 15.0 mph - N/A   Overcast
4:36 PM 21.2 °F 8.3 °F 8.6 °F 58% 29.81 in 7.0 mi ENE 13.8 mph 21.9 mph N/A   Overcast
4:56 PM 21.2 °F 7.3 °F 8.6 °F 58% 29.81 in 10.0 mi ENE 16.1 mph - N/A   Overcast
5:16 PM 21.2 °F 8.3 °F 8.6 °F 58% 29.81 in 5.0 mi NE 13.8 mph - N/A   Overcast
5:36 PM 21.2 °F 9.5 °F 8.6 °F 58% 29.80 in 7.0 mi ENE 11.5 mph - N/A   Overcast
5:56 PM 21.2 °F 8.3 °F 8.6 °F 58% 29.80 in 9.0 mi ENE 13.8 mph - N/A   Overcast
6:16 PM 23.0 °F 11.1 °F 8.6 °F 54% 29.80 in 10.0 mi NE 12.7 mph 17.3 mph N/A   Overcast
6:36 PM 21.2 °F 8.3 °F 8.6 °F 58% 29.80 in 9.0 mi ENE 13.8 mph 19.6 mph N/A   Overcast
6:56 PM 21.2 °F 10.9 °F 8.6 °F 58% 29.80 in 10.0 mi ENE 9.2 mph 17.3 mph N/A   Overcast
7:16 PM 21.2 °F 9.5 °F 10.4 °F 63% 29.80 in 6.0 mi ENE 11.5 mph 19.6 mph N/A   Overcast
7:36 PM 21.2 °F 8.9 °F 10.4 °F 63% 29.80 in 4.0 mi ENE 12.7 mph 16.1 mph N/A   Overcast
7:56 PM 21.2 °F 10.1 °F 10.4 °F 63% 29.80 in 3.0 mi ENE 10.4 mph 17.3 mph N/A   Overcast
8:16 PM 19.4 °F 6.0 °F 10.4 °F 68% 29.80 in 2.5 mi NE 13.8 mph 17.3 mph N/A   Overcast
8:36 PM 19.4 °F 8.6 °F 10.4 °F 68% 29.80 in 3.0 mi ENE 9.2 mph - N/A   Overcast
8:56 PM 19.4 °F 7.2 °F 10.4 °F 68% 29.80 in 9.0 mi ENE 11.5 mph - N/A   Overcast
9:16 PM 19.4 °F 8.6 °F 10.4 °F 68% 29.80 in 10.0 mi ENE 9.2 mph - N/A   Overcast
9:36 PM 19.4 °F 8.6 °F 10.4 °F 68% 29.80 in 6.0 mi NE 9.2 mph - N/A   Overcast
9:56 PM 19.4 °F 11.5 °F 10.4 °F 68% 29.79 in 5.0 mi NE 5.8 mph - N/A   Overcast
10:16 PM 19.4 °F 8.6 °F 10.4 °F 68% 29.79 in 10.0 mi ENE 9.2 mph - N/A   Overcast
10:36 PM 19.4 °F 7.9 °F 10.4 °F 68% 29.78 in 6.0 mi ENE 10.4 mph - N/A   Overcast
10:56 PM 19.4 °F 7.9 °F 10.4 °F 68% 29.78 in 9.0 mi ENE 10.4 mph - N/A   Overcast
11:16 PM 19.4 °F 9.5 °F 10.4 °F 68% 29.78 in 10.0 mi NE 8.1 mph - N/A   Overcast
11:36 PM 19.4 °F 8.6 °F 12.2 °F 74% 29.78 in 10.0 mi NE 9.2 mph - N/A   Overcast
11:56 PM 19.4 °F 7.9 °F 12.2 °F 74% 29.78 in 10.0 mi NE 10.4 mph - N/A   Overcast